When you browse on this site, cookies collect data to enhance your experience and personalize the content and advertising you see.
Visit our Privacy Policy to learn more. By continuing to use the site, you agree to this use of cookies and data.
  • In Norway
  • List of Countries
  • For 7 days
  • Water Temperature
  • Satellite Maps
  • Weather Map
  • Weather Widgets
  • user-avatar
    Login

    Hourly Weather Al-Basra

    Today, 25 June, Tuesday

    Time Temperature Precipitation Wind Pressure Humidity
    00:00 +40°C° 0 mm 6 mps 748 mmHg 8%
    01:00 +39°C° 0 mm 6 mps 748 mmHg 10%
    02:00 +38°C° 0 mm 6 mps 747 mmHg 12%
    03:00 +36°C° 0 mm 6 mps 747 mmHg 14%
    04:00 +36°C° 0 mm 5 mps 747 mmHg 15%
    05:00 +36°C° 0 mm 5 mps 748 mmHg 15%
    06:00 +36°C° 0 mm 5 mps 748 mmHg 15%
    07:00 +40°C° 0 mm 5 mps 748 mmHg 12%
    08:00 +43°C° 0 mm 5 mps 748 mmHg 9%
    09:00 +48°C° 0 mm 5 mps 749 mmHg 7%
    10:00 +49°C° 0 mm 5 mps 748 mmHg 6%
    11:00 +52°C° 0 mm 6 mps 748 mmHg 5%
    12:00 +53°C° 0 mm 6 mps 748 mmHg 4%
    13:00 +54°C° 0 mm 6 mps 748 mmHg 4%
    14:00 +54°C° 0 mm 6 mps 747 mmHg 4%
    15:00 +54°C° 0 mm 6 mps 747 mmHg 4%
    16:00 +54°C° 0 mm 6 mps 747 mmHg 4%
    17:00 +53°C° 0 mm 6 mps 747 mmHg 4%
    18:00 +52°C° 0 mm 6 mps 747 mmHg 4%
    19:00 +49°C° 0 mm 6 mps 747 mmHg 6%
    20:00 +46°C° 0 mm 6 mps 747 mmHg 7%
    21:00 +44°C° 0 mm 6 mps 748 mmHg 8%
    22:00 +42°C° 0 mm 6 mps 748 mmHg 9%
    23:00 +41°C° 0 mm 6 mps 748 mmHg 9%

    Tomorrow, 26 June, Wednesday

    Time Temperature Precipitation Wind Pressure Humidity
    00:00 +40°C° 0 mm 6 mps 748 mmHg 10%
    01:00 +40°C° 0 mm 6 mps 747 mmHg 11%
    02:00 +39°C° 0 mm 5 mps 747 mmHg 11%
    03:00 +39°C° 0 mm 5 mps 747 mmHg 12%
    04:00 +39°C° 0 mm 5 mps 747 mmHg 12%
    05:00 +37°C° 0 mm 4 mps 747 mmHg 12%
    06:00 +37°C° 0 mm 4 mps 748 mmHg 12%
    07:00 +42°C° 0 mm 6 mps 748 mmHg 10%
    08:00 +46°C° 0 mm 7 mps 748 mmHg 8%
    09:00 +50°C° 0 mm 8 mps 748 mmHg 6%
    10:00 +51°C° 0 mm 9 mps 748 mmHg 6%
    11:00 +54°C° 0 mm 10 mps 747 mmHg 5%
    12:00 +56°C° 0 mm 11 mps 747 mmHg 4%
    13:00 +56°C° 0 mm 11 mps 746 mmHg 4%
    14:00 +57°C° 0 mm 10 mps 746 mmHg 4%
    15:00 +57°C° 0 mm 10 mps 745 mmHg 3%
    16:00 +55°C° 0 mm 9 mps 745 mmHg 4%
    17:00 +54°C° 0 mm 8 mps 745 mmHg 4%
    18:00 +53°C° 0 mm 7 mps 745 mmHg 4%
    19:00 +50°C° 0 mm 7 mps 745 mmHg 5%
    20:00 +47°C° 0 mm 6 mps 745 mmHg 6%
    21:00 +43°C° 0 mm 5 mps 746 mmHg 7%
    22:00 +43°C° 0 mm 5 mps 745 mmHg 8%
    23:00 +42°C° 0 mm 5 mps 745 mmHg 9%

    Day after tomorrow, 27 June, Thursday

    Time Temperature Precipitation Wind Pressure Humidity
    00:00 +41°C° 0 mm 5 mps 745 mmHg 9%
    01:00 +41°C° 0 mm 5 mps 744 mmHg 10%
    02:00 +40°C° 0 mm 5 mps 744 mmHg 10%
    03:00 +40°C° 0 mm 5 mps 744 mmHg 10%
    04:00 +39°C° 0 mm 6 mps 744 mmHg 10%
    05:00 +39°C° 0 mm 6 mps 744 mmHg 11%
    06:00 +39°C° 0 mm 6 mps 745 mmHg 11%
    07:00 +43°C° 0 mm 7 mps 745 mmHg 9%
    08:00 +46°C° 0 mm 8 mps 745 mmHg 7%
    09:00 +51°C° 0 mm 9 mps 745 mmHg 6%
    10:00 +53°C° 0 mm 10 mps 744 mmHg 5%
    11:00 +56°C° 0 mm 11 mps 744 mmHg 5%
    12:00 +57°C° 0 mm 11 mps 744 mmHg 4%
    13:00 +58°C° 0 mm 11 mps 743 mmHg 4%
    14:00 +58°C° 0 mm 11 mps 742 mmHg 4%
    15:00 +58°C° 0 mm 10 mps 742 mmHg 3%
    16:00 +56°C° 0 mm 9 mps 742 mmHg 4%
    17:00 +55°C° 0 mm 8 mps 742 mmHg 4%
    18:00 +54°C° 0 mm 6 mps 742 mmHg 4%
    19:00 +51°C° 0 mm 6 mps 742 mmHg 5%
    20:00 +48°C° 0 mm 6 mps 742 mmHg 6%
    21:00 +46°C° 0 mm 6 mps 742 mmHg 8%
    22:00 +45°C° 0 mm 6 mps 742 mmHg 8%
    23:00 +43°C° 0 mm 5 mps 742 mmHg 9%

    28 June, Friday

    Time Temperature Precipitation Wind Pressure Humidity
    00:00 +43°C° 0 mm 5 mps 742 mmHg 9%
    01:00 +42°C° 0 mm 5 mps 742 mmHg 9%
    02:00 +41°C° 0 mm 4 mps 742 mmHg 10%
    03:00 +40°C° 0 mm 4 mps 742 mmHg 10%
    04:00 +40°C° 0 mm 4 mps 742 mmHg 10%
    05:00 +40°C° 0 mm 5 mps 743 mmHg 10%
    06:00 +40°C° 0 mm 6 mps 743 mmHg 9%
    07:00 +42°C° 0 mm 6 mps 743 mmHg 8%
    08:00 +46°C° 0 mm 6 mps 743 mmHg 6%
    09:00 +50°C° 0 mm 7 mps 744 mmHg 5%
    10:00 +51°C° 0 mm 7 mps 743 mmHg 4%
    11:00 +54°C° 0 mm 8 mps 743 mmHg 4%
    12:00 +56°C° 0 mm 8 mps 743 mmHg 3%
    13:00 +56°C° 0 mm 9 mps 742 mmHg 4%
    14:00 +56°C° 0 mm 9 mps 742 mmHg 4%
    15:00 +58°C° 0 mm 10 mps 742 mmHg 4%
    16:00 +56°C° 0 mm 9 mps 742 mmHg 5%
    17:00 +55°C° 0 mm 8 mps 742 mmHg 5%
    18:00 +53°C° 0 mm 7 mps 742 mmHg 6%
    19:00 +49°C° 0 mm 6 mps 742 mmHg 7%
    20:00 +47°C° 0 mm 5 mps 742 mmHg 8%
    21:00 +44°C° 0 mm 4 mps 743 mmHg 10%
    22:00 +43°C° 0 mm 4 mps 743 mmHg 10%
    23:00 +42°C° 0 mm 4 mps 743 mmHg 11%

    29 June, Saturday

    Time Temperature Precipitation Wind Pressure Humidity
    00:00 +41°C° 0 mm 4 mps 743 mmHg 11%
    01:00 +40°C° 0 mm 4 mps 743 mmHg 11%
    02:00 +40°C° 0 mm 4 mps 743 mmHg 11%
    03:00 +38°C° 0 mm 4 mps 743 mmHg 11%
    04:00 +37°C° 0 mm 4 mps 743 mmHg 10%
    05:00 +37°C° 0 mm 4 mps 743 mmHg 9%
    06:00 +37°C° 0 mm 4 mps 744 mmHg 9%
    07:00 +41°C° 0 mm 4 mps 744 mmHg 7%
    08:00 +43°C° 0 mm 4 mps 744 mmHg 6%
    09:00 +47°C° 0 mm 4 mps 744 mmHg 4%
    10:00 +49°C° 0 mm 4 mps 744 mmHg 4%
    11:00 +50°C° 0 mm 5 mps 744 mmHg 3%
    12:00 +53°C° 0 mm 5 mps 744 mmHg 3%
    13:00 +53°C° 0 mm 6 mps 743 mmHg 3%
    14:00 +54°C° 0 mm 6 mps 743 mmHg 4%
    15:00 +54°C° 0 mm 6 mps 742 mmHg 4%
    16:00 +53°C° 0 mm 6 mps 742 mmHg 4%
    17:00 +53°C° 0 mm 6 mps 742 mmHg 4%
    18:00 +52°C° 0 mm 6 mps 742 mmHg 4%
    19:00 +49°C° 0 mm 5 mps 743 mmHg 5%
    20:00 +45°C° 0 mm 4 mps 743 mmHg 6%
    21:00 +43°C° 0 mm 3 mps 744 mmHg 7%
    22:00 +42°C° 0 mm 4 mps 743 mmHg 8%
    23:00 +42°C° 0 mm 4 mps 743 mmHg 9%

    30 June, Sunday

    Time Temperature Precipitation Wind Pressure Humidity
    00:00 +41°C° 0 mm 4 mps 743 mmHg 10%
    01:00 +40°C° 0 mm 4 mps 743 mmHg 11%
    02:00 +38°C° 0 mm 4 mps 743 mmHg 12%
    03:00 +38°C° 0 mm 4 mps 743 mmHg 14%
    04:00 +37°C° 0 mm 3 mps 743 mmHg 13%
    05:00 +37°C° 0 mm 3 mps 744 mmHg 13%
    06:00 +37°C° 0 mm 3 mps 744 mmHg 13%
    07:00 +40°C° 0 mm 3 mps 744 mmHg 11%
    08:00 +43°C° 0 mm 3 mps 745 mmHg 8%
    09:00 +46°C° 0 mm 3 mps 745 mmHg 6%
    10:00 +49°C° 0 mm 4 mps 745 mmHg 6%
    11:00 +50°C° 0 mm 5 mps 744 mmHg 6%
    12:00 +53°C° 0 mm 6 mps 744 mmHg 5%
    13:00 +53°C° 0 mm 6 mps 744 mmHg 5%
    14:00 +55°C° 0 mm 7 mps 743 mmHg 5%
    15:00 +55°C° 0 mm 7 mps 743 mmHg 4%
    16:00 +53°C° 0 mm 6 mps 743 mmHg 4%
    17:00 +52°C° 0 mm 6 mps 742 mmHg 4%
    18:00 +50°C° 0 mm 5 mps 742 mmHg 4%
    19:00 +48°C° 0 mm 5 mps 743 mmHg 6%
    20:00 +47°C° 0 mm 6 mps 743 mmHg 7%
    21:00 +45°C° 0 mm 6 mps 744 mmHg 8%
    22:00 +44°C° 0 mm 6 mps 744 mmHg 9%
    23:00 +42°C° 0 mm 6 mps 743 mmHg 11%
    Show more